User: anonymous   Login
Location: Amon Carter Post Office
(32.8281°N, 97.0484°W)
Time: 09:27:18
(UTC+00:00)
Language:

ADEOS - Orbit

View from above orbital plane
View from above orbital plane
View from above satellite
View from above satellite

Ground track
Ground track

The orbit data is extracted from the following two-line orbital elements,

1 24277U 96046A   22141.00706903  .00000234  00000-0  10999-3 0  9992
2 24277  98.9341 143.1742 0002212 108.8280 251.3141 14.29535159343207
Epoch (UTC): 21 May 2022 00:10:10
Eccentricity: 0.0002212
inclination: 98.9341°
perigee height: 792 km
apogee height: 795 km
right ascension of ascending node: 143.1742°
argument of perigee: 108.8280°
revolutions per day: 14.29535159
mean anomaly at epoch: 251.3141°
orbit number at epoch: 34320

The dashed part of the orbit path shows where the satellite is in the earth's shadow,  

DLR